Location: Lawrence
(38.9720°N, 95.2350°W)
Time: 22:22:51
(UTC-05:00)

JAS-1B - Visible Passes

Search period start: 03 August 2015 00:00
Search period end: 13 August 2015 00:00
Orbit: 911 x 1744 km, 99.1° (Epoch: 03 August)

Date Brightness Start Highest point End Pass type
(mag) Time Alt. Az. Time Alt. Az. Time Alt. Az.
03 Aug 6.9 00:06:59 10° NNE 00:12:11 73° N 00:12:11 73° N visible
03 Aug 9.3 02:01:19 10° NW 02:02:40 11° WNW 02:03:39 10° WNW visible
03 Aug 8.7 22:37:20 10° ENE 22:39:07 14° ENE 22:39:07 14° ENE visible
04 Aug 7.2 00:26:06 10° N 00:31:22 59° NW 00:31:22 59° NW visible
04 Aug 8.3 22:55:17 10° NE 22:58:19 21° ENE 22:58:19 21° ENE visible
05 Aug 7.8 00:45:19 10° N 00:50:33 41° WNW 00:50:33 41° WNW visible
05 Aug 7.9 23:13:44 10° NNE 23:17:30 30° ENE 23:17:30 30° ENE visible
06 Aug 8.3 01:04:41 10° N 01:09:33 28° WNW 01:09:44 28° WNW visible
06 Aug 7.5 23:32:26 10° NNE 23:36:41 42° ENE 23:36:41 42° ENE visible
07 Aug 8.7 01:24:17 10° NNW 01:28:23 20° WNW 01:28:55 20° WNW visible
07 Aug 7.2 23:51:18 10° NNE 23:55:52 57° NE 23:55:52 57° NE visible
08 Aug 9.1 01:44:17 10° NNW 01:47:09 14° WNW 01:48:07 13° WNW visible
09 Aug 7.2 00:10:18 10° N 00:15:03 62° NNW 00:15:03 62° NNW visible
09 Aug 8.7 22:40:05 10° NE 22:42:00 16° ENE 22:42:00 16° ENE visible
10 Aug 7.6 00:29:26 10° N 00:34:14 49° NW 00:34:14 49° NW visible
10 Aug 8.3 22:58:17 10° NE 23:01:11 23° ENE 23:01:11 23° ENE visible
11 Aug 8.1 00:48:42 10° N 00:53:26 36° WNW 00:53:26 36° WNW visible
11 Aug 7.9 23:16:49 10° NNE 23:20:23 32° ENE 23:20:23 32° ENE visible
12 Aug 8.5 01:08:08 10° NNW 01:12:37 25° WNW 01:12:37 25° WNW visible
12 Aug 7.6 23:35:35 10° NNE 23:39:34 43° NE 23:39:34 43° NE visible
